VK2HN Weather Reports


time (UTC)temp
C
wind
direction
speed
KPH
gust
KPH
rain 1hr
cm
rain 24hr
cm
rain mn
cm
humidity
%
barometer
mb
20260510045442 23 99 3.2 11.3 0.00 0.00 0.00 59 1027.7
20260510044942 23 115 1.6 11.3 0.00 0.00 0.00 59 1027.7
20260510044442 23 150 1.6 9.7 0.00 0.00 0.00 60 1027.8
20260510043942 23 225 3.2 4.8 0.00 0.00 0.00 58 1027.8
20260510043442 23 225 1.6 6.4 0.00 0.00 0.00 57 1027.7
20260510042942 23 192 1.6 4.8 0.00 0.00 0.00 57 1027.8
20260510042442 23 191 3.2 4.8 0.00 0.00 0.00 57 1027.9
20260510041942 23 238 3.2 8.0 0.00 0.00 0.00 57 1027.9
20260510041442 23 180 1.6 8.0 0.00 0.00 0.00 60 1027.8
20260510040942 23 111 1.6 3.2 0.00 0.00 0.00 58 1027.8
20260510040442 23 111 3.2 4.8 0.00 0.00 0.00 60 1027.9
20260510035942 23 108 3.2 6.4 0.00 0.00 0.00 60 1028.0
20260510035442 23 113 3.2 12.9 0.00 0.00 0.00 61 1027.9
20260510034942 23 73 3.2 6.4 0.00 0.00 0.00 61 1028.0
20260510034442 23 95 3.2 6.4 0.00 0.00 0.00 59 1028.0
20260510033942 23 101 1.6 6.4 0.00 0.00 0.00 60 1028.1
20260510033442 23 99 1.6 6.4 0.00 0.00 0.00 61 1028.0
20260510032942 22 95 1.6 4.8 0.00 0.00 0.00 62 1028.0
20260510032442 22 94 3.2 6.4 0.00 0.00 0.00 61 1027.9
20260510031942 22 91 4.8 11.3 0.00 0.00 0.00 60 1028.0
20260510031442 22 114 4.8 11.3 0.00 0.00 0.00 59 1028.1
20260510030942 23 123 3.2 11.3 0.00 0.00 0.00 62 1028.3
20260510030442 23 140 3.2 8.0 0.00 0.00 0.00 61 1028.4
20260510025942 23 217 3.2 8.0 0.00 0.00 0.00 59 1028.6
20260510025442 23 197 3.2 14.5 0.00 0.00 0.00 60 1028.7
20260510024942 23 208 3.2 6.4 0.00 0.00 0.00 61 1028.6
20260510024442 22 206 3.2 9.7 0.00 0.00 0.00 60 1028.8
20260510023942 22 141 1.6 6.4 0.00 0.00 0.00 60 1028.8
20260510023442 22 151 1.6 6.4 0.00 0.00 0.00 63 1028.9
20260510022942 22 153 3.2 8.0 0.00 0.00 0.00 62 1028.9
20260510022442 22 215 3.2 3.2 0.00 0.00 0.00 60 1028.9
20260510021942 22 215 3.2 6.4 0.00 0.00 0.00 61 1029.0
20260510021442 22 219 3.2 8.0 0.00 0.00 0.00 60 1029.2
20260510020942 22 185 1.6 8.0 0.00 0.00 0.00 61 1029.1
20260510020442 21 179 1.6 6.4 0.00 0.00 0.00 64 1029.1
20260510015942 21 175 1.6 4.8 0.00 0.00 0.00 68 1029.3
20260510015442 21 178 1.6 4.8 0.00 0.00 0.00 65 1029.3
20260510014942 21 156 1.6 4.8 0.00 0.00 0.00 65 1029.3
20260510014442 20 156 3.2 4.8 0.00 0.00 0.00 68 1029.4
20260510013942 20 157 3.2 8.0 0.00 0.00 0.00 69 1029.4
20260510013442 20 131 3.2 9.7 0.00 0.00 0.00 69 1029.6
20260510012942 19 114 0.0 6.4 0.00 0.00 0.00 69 1029.7
20260510012442 18 108 1.6 3.2 0.00 0.00 0.00 74 1029.7
20260510011942 18 105 1.6 6.4 0.00 0.00 0.00 74 1029.8
20260510011442 17 106 0.0 6.4 0.00 0.00 0.00 75 1029.9
20260510010942 17 146 0.0 0.0 0.00 0.00 0.00 76 1029.9
20260510010442 17 146 1.6 0.0 0.00 0.00 0.00 76 1029.9
20260510005942 17 146 1.6 6.4 0.00 0.00 0.00 77 1030.0
20260510005442 16 179 0.0 3.2 0.00 0.00 0.00 79 1029.9
20260510004942 16 190 0.0 1.6 0.00 0.00 0.00 80 1030.1
20260510004442 16 190 0.0 1.6 0.00 0.00 0.00 80 1030.1
20260510003942 16 190 0.0 0.0 0.00 0.00 0.00 80 1030.2
20260510003442 15 190 0.0 0.0 0.00 0.00 0.00 82 1030.3
20260510002942 15 190 0.0 0.0 0.00 0.00 0.00 82 1030.3
20260510002442 15 190 0.0 0.0 0.00 0.00 0.00 83 1030.2
20260510001942 15 191 0.0 3.2 0.00 0.00 0.00 84 1030.2
20260510001442 15 243 0.0 0.0 0.00 0.00 0.00 86 1030.1
20260510000942 14 242 0.0 1.6 0.00 0.00 0.00 87 1030.1
20260510000442 14 242 0.0 4.8 0.00 0.00 0.00 89 1030.1
20260509235942 13 240 0.0 0.0 0.00 0.00 0.00 90 1030.0
20260509235442 13 240 0.0 0.0 0.00 0.00 0.00 91 1029.9
20260509234942 13 241 0.0 0.0 0.00 0.00 0.00 91 1030.0
20260509234442 13 242 0.0 1.6 0.00 0.00 0.00 92 1029.9
20260509233942 12 101 0.0 0.0 0.00 0.00 0.00 94 1030.0
20260509233442 12 101 0.0 0.0 0.00 0.00 0.00 95 1029.9
20260509232942 12 101 0.0 0.0 0.00 0.00 0.00 95 1029.9
20260509232442 12 101 0.0 0.0 0.00 0.00 0.00 96 1029.9
20260509231942 11 101 0.0 0.0 0.00 0.00 0.00 96 1029.9
20260509231442 11 101 0.0 0.0 0.00 0.00 0.00 97 1029.9
20260509230942 11 101 0.0 0.0 0.00 0.00 0.00 97 1029.9
20260509230442 11 101 0.0 0.0 0.00 0.00 0.00 97 1029.9
20260509225942 11 101 0.0 0.0 0.00 0.00 0.00 98 1029.9
20260509225442 11 101 0.0 0.0 0.00 0.00 0.00 98 1030.0
20260509224942 10 101 0.0 0.0 0.00 0.00 0.00 98 1029.9
20260509224442 10 101 0.0 0.0 0.00 0.00 0.00 99 1029.9
20260509223942 10 101 0.0 0.0 0.00 0.00 0.00 99 1029.9
20260509223442 9 101 0.0 0.0 0.00 0.00 0.00 99 1029.8
20260509222943 9 101 0.0 0.0 0.00 0.00 0.00 99 1029.8
20260509222442 8 101 0.0 0.0 0.00 0.00 0.00 99 1029.8
20260509221943 8 101 0.0 0.0 0.00 0.00 0.00 99 1029.7
20260509221443 8 101 0.0 0.0 0.00 0.00 0.00 99 1029.8
20260509220943 7 101 0.0 0.0 0.00 0.00 0.00 99 1029.7
20260509220443 7 101 0.0 0.0 0.00 0.00 0.00 99 1029.8
20260509215943 7 101 0.0 0.0 0.00 0.00 0.00 99 1029.6
20260509215443 6 101 0.0 0.0 0.00 0.00 0.00 99 1029.7
20260509214943 6 101 0.0 0.0 0.00 0.00 0.00 98 1029.7
20260509214443 5 101 0.0 0.0 0.00 0.00 0.00 98 1029.6
20260509213943 5 101 0.0 0.0 0.00 0.00 0.00 98 1029.6
20260509213443 5 101 0.0 0.0 0.00 0.00 0.00 98 1029.6
20260509212943 5 101 0.0 0.0 0.00 0.00 0.00 98 1029.6
20260509212443 5 101 0.0 0.0 0.00 0.00 0.00 98 1029.5
20260509211943 5 101 0.0 0.0 0.00 0.00 0.00 98 1029.5
20260509211443 5 101 0.0 0.0 0.00 0.00 0.00 98 1029.4
20260509210943 5 101 0.0 0.0 0.00 0.00 0.00 98 1029.3
20260509210443 5 101 0.0 0.0 0.00 0.00 0.00 98 1029.2
20260509205943 5 101 0.0 0.0 0.00 0.00 0.00 98 1029.3
20260509205443 5 101 0.0 0.0 0.00 0.00 0.00 98 1029.3
20260509204943 5 101 0.0 0.0 0.00 0.00 0.00 98 1029.1
20260509204443 5 101 0.0 0.0 0.00 0.00 0.00 98 1029.1
20260509203943 5 101 0.0 0.0 0.00 0.00 0.00 98 1028.9
20260509203443 5 101 0.0 0.0 0.00 0.00 0.00 98 1029.0
20260509202943 5 101 0.0 0.0 0.00 0.00 0.00 97 1028.9
20260509202443 5 101 0.0 0.0 0.00 0.00 0.00 97 1028.7
20260509201943 5 101 0.0 0.0 0.00 0.00 0.00 97 1028.8
20260509201443 5 101 0.0 0.0 0.00 0.00 0.00 97 1028.6
20260509200943 5 101 0.0 0.0 0.00 0.00 0.00 98 1028.6
20260509200443 5 101 0.0 0.0 0.00 0.00 0.00 98 1028.6
20260509195943 5 101 0.0 0.0 0.00 0.00 0.00 98 1028.5
20260509195443 5 101 0.0 0.0 0.00 0.00 0.00 98 1028.4
20260509194943 5 101 0.0 0.0 0.00 0.00 0.00 97 1028.4
20260509194443 5 101 0.0 0.0 0.00 0.00 0.00 97 1028.3
20260509193943 5 101 0.0 1.6 0.00 0.00 0.00 97 1028.2
20260509193443 5 101 0.0 3.2 0.00 0.00 0.00 97 1028.2
20260509192943 5 101 0.0 0.0 0.00 0.00 0.00 97 1028.1
20260509192443 5 101 0.0 0.0 0.00 0.00 0.00 97 1028.1
20260509191943 5 101 0.0 0.0 0.00 0.00 0.00 97 1028.0
20260509191443 5 101 0.0 0.0 0.00 0.00 0.00 97 1028.0
20260509190943 5 101 0.0 0.0 0.00 0.00 0.00 97 1028.0
20260509190443 5 101 0.0 0.0 0.00 0.00 0.00 97 1027.9
20260509185943 5 101 0.0 0.0 0.00 0.00 0.00 97 1027.9
20260509185443 5 101 0.0 0.0 0.00 0.00 0.00 97 1027.9
20260509184943 5 101 0.0 0.0 0.00 0.00 0.00 97 1027.8
20260509184443 5 101 0.0 0.0 0.00 0.00 0.00 97 1027.9
20260509183943 5 101 0.0 0.0 0.00 0.00 0.00 97 1027.8
20260509183443 5 101 0.0 0.0 0.00 0.00 0.00 97 1027.7
20260509182943 5 101 0.0 0.0 0.00 0.00 0.00 97 1027.7
20260509182443 5 101 0.0 0.0 0.00 0.00 0.00 97 1027.6
20260509181943 5 101 0.0 0.0 0.00 0.00 0.00 97 1027.6
20260509181443 5 101 0.0 0.0 0.00 0.00 0.00 97 1027.6
20260509180943 5 101 0.0 0.0 0.00 0.00 0.00 97 1027.5
20260509180443 5 101 0.0 0.0 0.00 0.00 0.00 97 1027.5
20260509175943 5 101 0.0 0.0 0.00 0.00 0.00 97 1027.5
20260509175443 5 101 0.0 0.0 0.00 0.00 0.00 97 1027.6
20260509174943 5 101 0.0 0.0 0.00 0.00 0.00 97 1027.4
20260509174443 5 101 0.0 0.0 0.00 0.00 0.00 97 1027.5
20260509173943 6 101 0.0 0.0 0.00 0.00 0.00 97 1027.3
20260509173443 6 101 0.0 0.0 0.00 0.00 0.00 97 1027.4
20260509172943 6 101 0.0 0.0 0.00 0.00 0.00 97 1027.4
20260509172443 6 101 0.0 0.0 0.00 0.00 0.00 97 1027.3
20260509171943 6 101 0.0 0.0 0.00 0.00 0.00 97 1027.3
20260509171443 6 101 0.0 0.0 0.00 0.00 0.00 97 1027.1
20260509170943 6 101 0.0 0.0 0.00 0.00 0.00 97 1027.1
20260509170443 6 101 0.0 0.0 0.00 0.00 0.00 97 1027.1
20260509165943 6 101 0.0 0.0 0.00 0.00 0.00 97 1026.9
20260509165443 6 101 0.0 0.0 0.00 0.00 0.00 97 1027.0
20260509164943 6 101 0.0 0.0 0.00 0.00 0.00 97 1027.0
20260509164443 6 101 0.0 0.0 0.00 0.00 0.00 97 1027.0
20260509163943 6 101 0.0 0.0 0.00 0.00 0.00 97 1026.9
20260509163443 6 101 0.0 0.0 0.00 0.00 0.00 97 1027.0
20260509162943 6 101 0.0 0.0 0.00 0.00 0.00 97 1027.0
20260509162443 6 101 0.0 0.0 0.00 0.00 0.00 97 1027.0
20260509161943 6 101 0.0 0.0 0.00 0.00 0.00 97 1026.9
20260509161443 6 101 0.0 0.0 0.00 0.00 0.00 97 1027.0
20260509160943 6 101 0.0 0.0 0.00 0.00 0.00 97 1027.0
20260509160443 6 101 0.0 0.0 0.00 0.00 0.00 97 1027.1
20260509155943 6 101 0.0 0.0 0.00 0.00 0.00 97 1026.9
20260509155443 6 101 0.0 0.0 0.00 0.00 0.00 96 1026.9
20260509155001 6 101 0.0 0.0 0.00 0.00 0.00 96 1027.0
20260509154443 6 101 0.0 0.0 0.00 0.00 0.00 96 1027.0
20260509153943 6 101 0.0 0.0 0.00 0.00 0.00 97 1027.0
20260509153443 6 101 0.0 0.0 0.00 0.00 0.00 96 1027.1
20260509152943 6 101 0.0 0.0 0.00 0.00 0.00 96 1027.1
20260509152443 6 101 0.0 0.0 0.00 0.00 0.00 96 1027.1
20260509151943 7 101 0.0 0.0 0.00 0.00 0.00 96 1027.1
20260509151443 7 101 0.0 0.0 0.00 0.00 0.00 96 1027.2
20260509150943 7 101 0.0 0.0 0.00 0.00 0.00 96 1027.1
20260509150443 7 101 0.0 0.0 0.00 0.00 0.00 96 1027.1
20260509145943 7 101 0.0 0.0 0.00 0.00 0.00 96 1027.3
20260509145443 7 101 0.0 0.0 0.00 0.00 0.00 96 1027.3
20260509144943 7 101 0.0 0.0 0.00 0.00 0.00 96 1027.0
20260509144443 7 101 0.0 0.0 0.00 0.00 0.00 96 1027.0
20260509143943 7 101 0.0 0.0 0.00 0.00 0.00 96 1026.9
20260509143443 7 101 0.0 0.0 0.00 0.00 0.00 96 1027.1
20260509142943 7 101 0.0 0.0 0.00 0.00 0.00 96 1027.0
20260509142443 7 101 0.0 0.0 0.00 0.00 0.00 96 1027.0
20260509141943 7 101 0.0 0.0 0.00 0.00 0.00 96 1026.9
20260509141443 7 101 0.0 0.0 0.00 0.00 0.00 96 1026.9
20260509140944 7 101 0.0 0.0 0.00 0.00 0.00 96 1027.0
20260509140443 7 101 0.0 0.0 0.00 0.00 0.00 96 1027.0
20260509135943 7 101 0.0 0.0 0.00 0.00 0.00 96 1027.0
20260509135443 7 101 0.0 0.0 0.00 0.00 0.00 96 1027.0
20260509134943 7 101 0.0 0.0 0.00 0.00 0.00 96 1027.0
20260509134443 7 101 0.0 0.0 0.00 0.00 0.00 96 1027.0
20260509133943 7 101 0.0 0.0 0.00 0.00 0.00 96 1027.1
20260509133443 7 101 0.0 0.0 0.00 0.00 0.00 96 1027.1
20260509132943 7 101 0.0 0.0 0.00 0.00 0.00 96 1027.1
20260509132443 7 101 0.0 0.0 0.00 0.00 0.00 96 1027.1
20260509131943 7 101 0.0 0.0 0.00 0.00 0.00 95 1027.1
20260509131443 7 101 0.0 0.0 0.00 0.00 0.00 95 1027.0
20260509130943 8 101 0.0 0.0 0.00 0.00 0.00 95 1027.0
20260509130444 8 101 0.0 0.0 0.00 0.00 0.00 95 1027.0
20260509125943 8 101 0.0 0.0 0.00 0.00 0.00 95 1027.0
20260509125444 8 101 0.0 0.0 0.00 0.00 0.00 95 1026.9
20260509124944 8 101 0.0 0.0 0.00 0.00 0.00 95 1026.9
20260509124444 8 101 0.0 0.0 0.00 0.00 0.00 95 1027.0
20260509123944 8 101 0.0 0.0 0.00 0.00 0.00 95 1027.0
20260509123444 8 101 0.0 0.0 0.00 0.00 0.00 95 1027.0
20260509122944 8 101 0.0 0.0 0.00 0.00 0.00 95 1027.0
20260509122444 8 101 0.0 0.0 0.00 0.00 0.00 95 1026.9
20260509121944 8 101 0.0 0.0 0.00 0.00 0.00 95 1027.1
20260509121444 8 101 0.0 0.0 0.00 0.00 0.00 95 1027.1
20260509120944 8 101 0.0 0.0 0.00 0.00 0.00 95 1027.0
20260509120444 8 101 0.0 0.0 0.00 0.00 0.00 95 1027.1
20260509115944 8 101 0.0 0.0 0.00 0.00 0.00 95 1027.1
20260509115444 8 101 0.0 0.0 0.00 0.00 0.00 95 1027.1
20260509114944 9 101 0.0 0.0 0.00 0.00 0.00 94 1027.1
20260509114444 9 101 0.0 0.0 0.00 0.00 0.00 94 1027.1
20260509113944 9 101 0.0 0.0 0.00 0.00 0.00 94 1027.1
20260509113444 9 101 0.0 0.0 0.00 0.00 0.00 94 1027.0
20260509112944 9 101 0.0 0.0 0.00 0.00 0.00 94 1027.0
20260509112444 9 101 0.0 0.0 0.00 0.00 0.00 94 1026.9
20260509111944 9 101 0.0 0.0 0.00 0.00 0.00 94 1027.0
20260509111444 9 101 0.0 0.0 0.00 0.00 0.00 94 1027.0
20260509110944 9 101 0.0 0.0 0.00 0.00 0.00 93 1026.9
20260509110444 10 101 0.0 0.0 0.00 0.00 0.00 93 1026.9
20260509105944 10 101 1.6 1.6 0.00 0.00 0.00 93 1026.9
20260509105444 10 101 1.6 3.2 0.00 0.00 0.00 93 1026.9
20260509104944 10 101 0.0 1.6 0.00 0.00 0.00 93 1026.9
20260509104444 10 101 0.0 0.0 0.00 0.00 0.00 93 1026.9
20260509103944 10 101 0.0 0.0 0.00 0.00 0.00 93 1026.9
20260509103444 10 101 0.0 0.0 0.00 0.00 0.00 92 1026.8
20260509102944 10 101 0.0 0.0 0.00 0.00 0.00 92 1026.8
20260509102444 10 101 0.0 1.6 0.00 0.00 0.00 92 1026.8
20260509101944 10 101 0.0 1.6 0.00 0.00 0.00 92 1026.8
20260509101444 10 101 0.0 0.0 0.00 0.00 0.00 92 1026.8
20260509100944 10 101 0.0 0.0 0.00 0.00 0.00 92 1026.7
20260509100444 10 101 0.0 0.0 0.00 0.00 0.00 91 1026.7
20260509095944 11 101 0.0 0.0 0.00 0.00 0.00 91 1026.5
20260509095444 11 101 0.0 0.0 0.00 0.00 0.00 91 1026.5
20260509094944 11 101 0.0 0.0 0.00 0.00 0.00 91 1026.5
20260509094444 11 101 0.0 0.0 0.00 0.00 0.00 91 1026.4
20260509093944 11 101 0.0 0.0 0.00 0.00 0.00 91 1026.4
20260509093444 11 101 0.0 0.0 0.00 0.00 0.00 91 1026.4
20260509092944 11 101 0.0 0.0 0.00 0.00 0.00 90 1026.4
20260509092444 11 101 0.0 0.0 0.00 0.00 0.00 89 1026.3
20260509091944 11 101 0.0 1.6 0.00 0.00 0.00 90 1026.3
20260509091444 11 101 0.0 0.0 0.00 0.00 0.00 89 1026.1
20260509090944 11 101 0.0 0.0 0.00 0.00 0.00 89 1026.0
20260509090444 12 101 0.0 0.0 0.00 0.00 0.00 89 1025.9
20260509085944 12 101 0.0 0.0 0.00 0.00 0.00 88 1025.7
20260509085444 12 101 0.0 0.0 0.00 0.00 0.00 88 1025.8
20260509084944 12 101 0.0 0.0 0.00 0.00 0.00 87 1025.6
20260509084444 12 101 0.0 1.6 0.00 0.00 0.00 86 1025.7
20260509083944 12 101 0.0 1.6 0.00 0.00 0.00 87 1025.5
20260509083444 12 101 0.0 0.0 0.00 0.00 0.00 87 1025.4
20260509082944 12 101 0.0 0.0 0.00 0.00 0.00 86 1025.3
20260509082444 13 101 0.0 0.0 0.00 0.00 0.00 86 1025.3
20260509081944 13 101 0.0 0.0 0.00 0.00 0.00 86 1025.1
20260509081444 13 101 0.0 0.0 0.00 0.00 0.00 85 1025.1
20260509080944 13 101 0.0 0.0 0.00 0.00 0.00 85 1025.0
20260509080444 13 101 0.0 0.0 0.00 0.00 0.00 85 1024.8
20260509075944 13 101 0.0 0.0 0.00 0.00 0.00 84 1024.8
20260509075444 13 101 0.0 0.0 0.00 0.00 0.00 82 1024.7
20260509074944 13 101 0.0 0.0 0.00 0.00 0.00 81 1024.8
20260509074444 14 101 0.0 0.0 0.00 0.00 0.00 81 1024.6
20260509073944 14 101 0.0 1.6 0.00 0.00 0.00 81 1024.6
20260509073444 15 101 0.0 0.0 0.00 0.00 0.00 79 1024.5
20260509072944 15 101 0.0 0.0 0.00 0.00 0.00 79 1024.4
20260509072444 15 101 1.6 1.6 0.00 0.00 0.00 77 1024.5
20260509071944 15 101 0.0 1.6 0.00 0.00 0.00 77 1024.3
20260509071444 15 101 0.0 3.2 0.00 0.00 0.00 75 1024.3
20260509070944 16 101 1.6 1.6 0.00 0.00 0.00 74 1024.3
20260509070444 16 101 1.6 4.8 0.00 0.00 0.00 74 1024.2
20260509065944 16 100 0.0 11.3 0.00 0.00 0.00 73 1024.0
20260509065444 17 115 0.0 0.0 0.00 0.00 0.00 72 1024.0
20260509064944 17 115 1.6 1.6 0.00 0.00 0.00 72 1024.0
20260509064444 17 115 1.6 3.2 0.00 0.00 0.00 71 1023.9
20260509063944 18 115 1.6 3.2 0.00 0.00 0.00 68 1023.9
20260509063444 18 115 1.6 3.2 0.00 0.00 0.00 66 1023.8
20260509062944 19 115 1.6 3.2 0.00 0.00 0.00 64 1023.7
20260509062444 19 115 1.6 3.2 0.00 0.00 0.00 62 1023.7
20260509061944 20 115 0.0 3.2 0.00 0.00 0.00 58 1023.6
20260509061444 20 116 0.0 0.0 0.00 0.00 0.00 58 1023.5
20260509060944 20 119 0.0 0.0 0.00 0.00 0.00 60 1023.5
20260509060444 20 119 0.0 0.0 0.00 0.00 0.00 59 1023.4
20260509055944 20 119 0.0 0.0 0.00 0.00 0.00 58 1023.3
20260509055444 20 119 0.0 3.2 0.00 0.00 0.00 57 1023.4
20260509054944 20 119 0.0 0.0 0.00 0.00 0.00 56 1023.2
20260509054444 20 119 1.6 3.2 0.00 0.00 0.00 57 1023.3
20260509053945 20 119 1.6 4.8 0.00 0.00 0.00 55 1023.3
20260509053444 20 119 1.6 4.8 0.00 0.00 0.00 55 1023.2
20260509052944 20 119 1.6 3.2 0.00 0.00 0.00 55 1023.1
20260509052444 20 113 3.2 4.8 0.00 0.00 0.00 52 1023.2
20260509051944 20 113 4.8 6.4 0.00 0.00 0.00 52 1023.2
20260509051444 21 126 4.8 6.4 0.00 0.00 0.00 54 1023.1
20260509050944 21 126 3.2 8.0 0.00 0.00 0.00 54 1023.0
20260509050444 21 149 3.2 9.7 0.00 0.00 0.00 53 1023.1
20260509045944 21 157 1.6 6.4 0.00 0.00 0.00 52 1023.2